TimeEDT,TemperatureF,Dew PointF,Humidity,Sea Level PressureIn,VisibilityMPH,Wind Direction,Wind SpeedMPH,Gust SpeedMPH,PrecipitationIn,Events,Conditions,WindDirDegrees,DateUTC
12:53 AM,71.1,66.9,87,30.16,10.0,South,3.5,-,N/A,,Clear,190,2013-08-22 04:53:00
1:53 AM,69.1,66.0,90,30.16,10.0,Calm,Calm,-,N/A,,Clear,0,2013-08-22 05:53:00
2:53 AM,69.1,66.9,93,30.14,10.0,Calm,Calm,-,N/A,,Mostly Cloudy,0,2013-08-22 06:53:00
3:12 AM,69.8,66.2,88,30.17,7.0,Calm,Calm,-,N/A,,Scattered Clouds,0,2013-08-22 07:12:00
3:53 AM,68.0,66.0,93,30.14,8.0,Calm,Calm,-,N/A,,Clear,0,2013-08-22 07:53:00
4:39 AM,66.2,64.4,94,30.17,1.8,Calm,Calm,-,N/A,,Scattered Clouds,0,2013-08-22 08:39:00
4:45 AM,68.0,64.4,88,30.17,3.0,Calm,Calm,-,N/A,,Scattered Clouds,0,2013-08-22 08:45:00
4:53 AM,68.0,64.9,90,30.14,3.0,Calm,Calm,-,N/A,,Scattered Clouds,0,2013-08-22 08:53:00
5:32 AM,68.0,66.2,94,30.18,1.8,Calm,Calm,-,N/A,,Mostly Cloudy,0,2013-08-22 09:32:00
5:39 AM,66.2,64.4,94,30.18,0.8,Calm,Calm,-,N/A,,Mist,0,2013-08-22 09:39:00
5:53 AM,68.0,66.0,93,30.14,1.0,Calm,Calm,-,N/A,,Overcast,0,2013-08-22 09:53:00
6:12 AM,68.0,66.2,94,30.18,2.0,Calm,Calm,-,N/A,,Mostly Cloudy,0,2013-08-22 10:12:00
6:25 AM,66.2,64.4,94,30.18,0.8,Calm,Calm,-,N/A,,Mostly Cloudy,0,2013-08-22 10:25:00
6:43 AM,66.2,64.4,94,30.18,2.0,Calm,Calm,-,N/A,,Overcast,0,2013-08-22 10:43:00
6:51 AM,68.0,66.2,94,30.18,5.0,Calm,Calm,-,N/A,,Overcast,0,2013-08-22 10:51:00
6:53 AM,68.0,66.0,93,30.15,5.0,Calm,Calm,-,N/A,,Overcast,0,2013-08-22 10:53:00
7:31 AM,69.8,66.2,88,30.19,5.0,SW,3.5,-,N/A,,Overcast,230,2013-08-22 11:31:00
7:45 AM,69.8,66.2,88,30.19,1.8,SW,4.6,-,N/A,,Overcast,220,2013-08-22 11:45:00
7:53 AM,69.1,66.9,93,30.16,0.8,Variable,4.6,-,N/A,,Overcast,0,2013-08-22 11:53:00
8:24 AM,69.8,68.0,94,30.20,1.2,Calm,Calm,-,N/A,,Overcast,0,2013-08-22 12:24:00
8:37 AM,69.8,68.0,94,30.20,3.0,Calm,Calm,-,N/A,,Overcast,0,2013-08-22 12:37:00
8:53 AM,70.0,68.0,93,30.17,6.0,WSW,3.5,-,N/A,,Overcast,250,2013-08-22 12:53:00
9:53 AM,73.0,69.1,87,30.16,9.0,SW,4.6,-,N/A,,Overcast,230,2013-08-22 13:53:00
10:53 AM,75.0,70.0,84,30.16,9.0,West,4.6,-,N/A,,Overcast,260,2013-08-22 14:53:00
11:41 AM,75.2,69.8,83,30.19,10.0,Calm,Calm,-,N/A,,Overcast,0,2013-08-22 15:41:00
11:53 AM,77.0,70.0,79,30.16,9.0,South,3.5,-,N/A,,Overcast,190,2013-08-22 15:53:00
12:40 PM,80.6,69.8,70,30.18,10.0,Variable,4.6,-,N/A,,Mostly Cloudy,0,2013-08-22 16:40:00
12:53 PM,81.0,70.0,69,30.14,10.0,West,4.6,-,N/A,,Mostly Cloudy,260,2013-08-22 16:53:00
1:25 PM,82.4,69.8,66,30.17,10.0,Calm,Calm,-,N/A,,Mostly Cloudy,0,2013-08-22 17:25:00
1:32 PM,82.4,69.8,66,30.17,10.0,Calm,Calm,-,N/A,,Scattered Clouds,0,2013-08-22 17:32:00
1:44 PM,82.4,69.8,66,30.17,10.0,WSW,4.6,-,N/A,,Mostly Cloudy,250,2013-08-22 17:44:00
1:53 PM,82.9,70.0,65,30.13,10.0,Calm,Calm,-,N/A,,Scattered Clouds,0,2013-08-22 17:53:00
2:53 PM,82.9,69.1,63,30.10,10.0,Variable,3.5,-,N/A,,Clear,0,2013-08-22 18:53:00
3:53 PM,84.0,68.0,58,30.08,10.0,SSW,5.8,-,N/A,,Partly Cloudy,210,2013-08-22 19:53:00
4:53 PM,84.0,69.1,61,30.06,10.0,SW,6.9,-,N/A,,Partly Cloudy,220,2013-08-22 20:53:00
5:53 PM,84.0,68.0,58,30.05,10.0,WSW,8.1,-,N/A,,Clear,250,2013-08-22 21:53:00
6:53 PM,82.9,68.0,60,30.05,10.0,West,4.6,-,N/A,,Clear,270,2013-08-22 22:53:00
7:53 PM,82.0,69.1,65,30.06,10.0,SW,3.5,-,N/A,,Clear,230,2013-08-22 23:53:00
8:53 PM,75.9,71.1,85,30.06,10.0,Calm,Calm,-,N/A,,Clear,0,2013-08-23 00:53:00
9:53 PM,73.9,70.0,87,30.07,9.0,Calm,Calm,-,N/A,,Clear,0,2013-08-23 01:53:00
10:53 PM,73.0,70.0,90,30.07,5.0,SE,3.5,-,N/A,,Clear,130,2013-08-23 02:53:00
11:53 PM,72.0,69.1,91,30.06,4.0,Calm,Calm,-,N/A,,Clear,0,2013-08-23 03:53:00